TimeEDT,TemperatureF,Dew PointF,Humidity,Sea Level PressureIn,VisibilityMPH,Wind Direction,Wind SpeedMPH,Gust SpeedMPH,PrecipitationIn,Events,Conditions,WindDirDegrees,DateUTC
12:15 AM,48.2,46.4,93,29.99,10.0,Calm,Calm,-,N/A,,Clear,0,2012-10-31 04:15:00
12:35 AM,55.4,46.4,72,29.98,10.0,West,4.6,-,N/A,,Clear,280,2012-10-31 04:35:00
12:55 AM,48.2,44.6,87,29.99,10.0,Calm,Calm,-,N/A,,Clear,0,2012-10-31 04:55:00
1:15 AM,48.2,46.4,93,29.99,10.0,Calm,Calm,-,N/A,,Clear,0,2012-10-31 05:15:00
1:35 AM,46.4,46.4,100,30.00,10.0,Calm,Calm,-,N/A,,Clear,0,2012-10-31 05:35:00
1:55 AM,48.2,48.2,100,30.00,10.0,Calm,Calm,-,N/A,,Partly Cloudy,0,2012-10-31 05:55:00
2:15 AM,46.4,44.6,93,30.00,10.0,Calm,Calm,-,N/A,,Clear,0,2012-10-31 06:15:00
2:35 AM,46.4,46.4,100,30.00,10.0,Calm,Calm,-,N/A,,Partly Cloudy,0,2012-10-31 06:35:00
2:55 AM,48.2,48.2,100,30.00,9.0,Calm,Calm,-,N/A,,Scattered Clouds,0,2012-10-31 06:55:00
3:15 AM,46.4,46.4,100,30.00,10.0,Calm,Calm,-,N/A,,Partly Cloudy,0,2012-10-31 07:15:00
3:35 AM,46.4,46.4,100,30.00,10.0,Calm,Calm,-,N/A,,Partly Cloudy,0,2012-10-31 07:35:00
3:55 AM,46.4,46.4,100,30.01,10.0,Calm,Calm,-,N/A,,Scattered Clouds,0,2012-10-31 07:55:00
4:15 AM,48.2,48.2,100,30.01,10.0,Calm,Calm,-,N/A,,Mostly Cloudy,0,2012-10-31 08:15:00
4:35 AM,48.2,46.4,93,30.01,10.0,Calm,Calm,-,N/A,,Scattered Clouds,0,2012-10-31 08:35:00
4:55 AM,48.2,46.4,93,30.01,10.0,Calm,Calm,-,N/A,,Clear,0,2012-10-31 08:55:00
5:15 AM,46.4,46.4,100,30.01,10.0,Calm,Calm,-,N/A,,Clear,0,2012-10-31 09:15:00
5:35 AM,48.2,48.2,100,30.01,10.0,Calm,Calm,-,N/A,,Mostly Cloudy,0,2012-10-31 09:35:00
5:55 AM,48.2,48.2,100,30.02,10.0,Calm,Calm,-,N/A,,Mostly Cloudy,0,2012-10-31 09:55:00
6:15 AM,48.2,46.4,93,30.02,10.0,Calm,Calm,-,N/A,,Mostly Cloudy,0,2012-10-31 10:15:00
6:35 AM,50.0,46.4,87,30.03,10.0,Calm,Calm,-,N/A,,Overcast,0,2012-10-31 10:35:00
6:55 AM,50.0,48.2,94,30.03,10.0,Calm,Calm,-,N/A,,Overcast,0,2012-10-31 10:55:00
7:15 AM,51.8,46.4,82,30.03,10.0,Calm,Calm,-,N/A,,Mostly Cloudy,0,2012-10-31 11:15:00
3:35 PM,71.6,44.6,38,30.00,8.0,West,13.8,-,N/A,,Clear,280,2012-10-31 19:35:00
3:55 PM,71.6,44.6,38,29.99,9.0,West,13.8,19.6,N/A,,Clear,280,2012-10-31 19:55:00
4:15 PM,71.6,44.6,38,29.99,10.0,West,13.8,18.4,N/A,,Clear,280,2012-10-31 20:15:00
4:35 PM,71.6,44.6,38,29.99,9.0,West,11.5,-,N/A,,Clear,270,2012-10-31 20:35:00
4:55 PM,71.6,44.6,38,30.00,9.0,West,15.0,19.6,N/A,,Clear,270,2012-10-31 20:55:00
5:15 PM,69.8,44.6,40,30.00,8.0,West,13.8,18.4,N/A,,Clear,280,2012-10-31 21:15:00
5:35 PM,69.8,44.6,40,30.00,9.0,West,11.5,19.6,N/A,,Clear,280,2012-10-31 21:35:00
5:55 PM,68.0,44.6,43,30.00,9.0,WNW,10.4,-,N/A,,Clear,290,2012-10-31 21:55:00
6:35 PM,66.2,44.6,46,30.01,9.0,West,8.1,-,N/A,,Clear,280,2012-10-31 22:35:00
6:55 PM,66.2,46.4,49,30.01,9.0,West,5.8,-,N/A,,Clear,280,2012-10-31 22:55:00
7:35 PM,60.8,46.4,59,30.02,10.0,WSW,4.6,-,N/A,,Clear,240,2012-10-31 23:35:00
7:55 PM,62.6,46.4,55,30.02,10.0,WSW,4.6,-,N/A,,Clear,240,2012-10-31 23:55:00
8:35 PM,60.8,48.2,63,30.03,10.0,WSW,5.8,-,N/A,,Clear,240,2012-11-01 00:35:00
8:55 PM,60.8,48.2,63,30.03,10.0,West,6.9,-,N/A,,Clear,260,2012-11-01 00:55:00
9:15 PM,60.8,48.2,63,30.04,10.0,West,5.8,-,N/A,,Clear,260,2012-11-01 01:15:00
9:35 PM,55.4,48.2,77,30.04,10.0,Calm,Calm,-,N/A,,Clear,0,2012-11-01 01:35:00
9:55 PM,55.4,50.0,82,30.04,10.0,Calm,Calm,-,N/A,,Clear,0,2012-11-01 01:55:00
10:15 PM,53.6,48.2,82,30.04,10.0,Calm,Calm,-,N/A,,Clear,0,2012-11-01 02:15:00
10:35 PM,53.6,50.0,88,30.05,10.0,Calm,Calm,-,N/A,,Clear,0,2012-11-01 02:35:00
10:55 PM,53.6,50.0,88,30.06,9.0,Calm,Calm,-,N/A,,Clear,0,2012-11-01 02:55:00
11:15 PM,51.8,50.0,94,30.06,10.0,Calm,Calm,-,N/A,,Clear,0,2012-11-01 03:15:00
11:35 PM,51.8,50.0,94,30.06,9.0,Calm,Calm,-,N/A,,Clear,0,2012-11-01 03:35:00
11:55 PM,51.8,51.8,100,30.06,10.0,Calm,Calm,-,N/A,,Clear,0,2012-11-01 03:55:00